GW5747 Weather Reports


time (UTC)temp
C
wind
direction
speed
KPH
gust
KPH
rain 1hr
cm
rain 24hr
cm
rain mn
cm
humidity
%
barometer
mb
20260507140351 11 138 0.0 0.0 0.00 0.08 0.08 74 1002.4
20260507135849 11 140 0.0 0.0 0.00 0.08 0.08 77 1002.4
20260507135345 11 149 0.0 0.0 0.00 0.08 0.08 78 1002.4
20260507134843 11 149 0.0 0.0 0.00 0.08 0.08 76 1002.7
20260507134339 11 149 0.0 0.0 0.00 0.08 0.08 76 1002.6
20260507133835 12 138 0.0 0.0 0.00 0.08 0.08 75 1002.3
20260507133331 12 141 0.0 0.0 0.00 0.08 0.08 76 1002.3
20260507132830 12 147 0.0 0.0 0.00 0.08 0.08 74 1002.5
20260507132325 12 151 0.0 0.0 0.18 0.08 0.08 72 1002.6
20260507131823 12 145 0.0 0.0 0.18 0.08 0.08 74 1002.4
20260507131319 12 148 0.0 0.0 0.00 0.05 0.05 74 1002.5
20260507130816 12 148 0.0 0.0 0.00 0.05 0.05 75 1002.4
20260507130314 12 148 0.0 0.0 0.00 0.05 0.05 78 1002.2
20260507125812 12 148 0.0 0.0 0.00 0.05 0.05 83 1002.5
20260507125309 12 138 0.0 0.0 0.00 0.05 0.05 82 1002.7
20260507124806 12 143 0.0 0.0 0.00 0.05 0.05 82 1002.5
20260507124303 11 127 0.0 0.0 0.00 0.05 0.05 80 1002.4
20260507123801 11 146 0.0 0.0 0.00 0.05 0.05 82 1002.5
20260507123258 11 137 0.0 0.0 0.00 0.05 0.05 84 1002.5
20260507122754 11 132 0.0 0.0 0.00 0.05 0.05 84 1002.5
20260507122249 11 155 0.0 0.0 0.00 0.05 0.05 85 1002.6
20260507121746 11 142 0.0 0.0 0.00 0.05 0.05 84 1002.4
20260507121241 11 135 0.0 0.0 0.00 0.05 0.05 84 1002.4
20260507120738 11 146 0.0 0.0 0.00 0.05 0.05 87 1002.4
20260507120235 11 146 0.0 0.0 0.00 0.05 0.05 86 1002.3
20260507115731 11 150 0.0 0.0 0.00 0.05 0.05 82 1002.1
20260507115227 11 140 0.0 0.0 0.00 0.05 0.05 85 1002.0
20260507114723 11 136 0.0 0.0 0.00 0.05 0.05 84 1002.1
20260507114220 11 137 0.0 0.0 0.00 0.05 0.05 84 1002.2
20260507113718 11 137 0.0 0.0 0.00 0.05 0.05 84 1002.1
20260507113214 11 137 0.0 0.0 0.00 0.05 0.05 83 1001.9
20260507112712 11 149 0.0 0.0 0.00 0.05 0.05 84 1002.0
20260507112209 11 142 0.0 0.0 0.00 0.05 0.05 85 1002.1
20260507111706 11 152 0.0 1.6 0.00 0.05 0.05 83 1001.9
20260507111203 11 92 0.0 0.0 0.00 0.05 0.05 87 1002.0
20260507110658 11 140 0.0 0.0 0.00 0.05 0.05 86 1002.0
20260507110156 11 138 0.0 0.0 0.00 0.05 0.05 86 1002.0
20260507105653 11 144 0.0 1.6 0.00 0.05 0.05 87 1002.0
20260507105148 11 124 0.0 0.0 0.00 0.05 0.05 90 1001.9
20260507104646 11 139 0.0 0.0 0.00 0.05 0.05 92 1001.7
20260507104142 11 145 0.0 0.0 0.00 0.05 0.05 94 1001.9
20260507103638 11 133 0.0 0.0 0.00 0.05 0.05 95 1001.8
20260507103135 11 134 0.0 0.0 0.00 0.05 0.05 95 1001.7
20260507102632 11 149 0.0 0.0 0.00 0.05 0.05 96 1001.5
20260507102128 11 144 0.0 0.0 0.00 0.05 0.05 96 1001.7
20260507101624 11 144 0.0 0.0 0.00 0.05 0.05 96 1001.3
20260507101120 11 144 0.0 0.0 0.00 0.05 0.05 96 1001.4
20260507100618 11 144 0.0 0.0 0.00 0.05 0.05 96 1001.5
20260507100115 11 144 0.0 0.0 0.00 0.05 0.05 96 1001.4
20260507095613 12 144 0.0 0.0 0.00 0.05 0.05 96 1001.3
20260507095109 12 148 0.0 0.0 0.00 0.05 0.05 96 1001.3
20260507094606 12 148 0.0 0.0 0.13 0.05 0.05 96 1001.4
20260507094103 12 154 0.0 0.0 0.13 0.05 0.05 96 1001.5
20260507093600 12 154 0.0 0.0 0.00 0.03 0.03 96 1001.4
20260507093059 12 154 0.0 0.0 0.00 0.03 0.03 95 1001.1
20260507092555 12 135 0.0 0.0 0.00 0.03 0.03 96 1001.1
20260507092052 12 147 0.0 0.0 0.00 0.03 0.03 96 1001.0
20260507091548 12 139 0.0 0.0 0.00 0.03 0.03 96 1001.0
20260507091045 12 139 0.0 0.0 0.00 0.03 0.03 96 1001.1
20260507090540 12 142 0.0 0.0 0.00 0.03 0.03 96 1001.2
20260507090038 12 145 0.0 0.0 0.00 0.03 0.03 96 1001.1
20260507085535 12 145 0.0 0.0 0.00 0.03 0.03 96 1001.3
20260507085031 12 142 0.0 0.0 0.00 0.03 0.03 96 1001.0
20260507084528 12 142 0.0 0.0 0.00 0.03 0.03 96 1001.2
20260507084025 12 142 0.0 0.0 0.00 0.03 0.03 96 1001.0
20260507083521 12 142 0.0 0.0 0.00 0.03 0.03 96 1001.0
20260507083018 12 142 0.0 0.0 0.00 0.03 0.03 95 1001.0
20260507082514 12 137 0.0 0.0 0.00 0.03 0.03 95 1000.8
20260507082010 12 136 0.0 0.0 0.00 0.03 0.03 95 1000.8
20260507081507 12 149 0.0 0.0 0.00 0.03 0.03 95 1000.7
20260507081004 12 135 0.0 0.0 0.00 0.03 0.03 94 1000.7
20260507080459 12 135 0.0 0.0 0.00 0.03 0.03 94 1000.5
20260507075955 12 147 0.0 0.0 0.00 0.03 0.03 94 1000.3
20260507075452 12 139 0.0 0.0 0.00 0.03 0.03 94 1000.3
20260507074948 12 123 0.0 0.0 0.00 0.03 0.03 95 1000.3
20260507074445 12 144 0.0 0.0 0.00 0.03 0.03 95 1000.6
20260507073943 12 143 0.0 0.0 0.00 0.03 0.03 96 1000.2
20260507073439 12 136 0.0 0.0 0.00 0.03 0.03 96 1000.2
20260507072936 12 135 0.0 0.0 0.00 0.03 0.03 96 1000.3
20260507072434 12 152 0.0 0.0 0.00 0.03 0.03 96 1000.5
20260507071931 12 150 0.0 0.0 0.00 0.03 0.03 97 1000.2
20260507071428 12 148 0.0 0.0 0.00 0.03 0.03 97 1000.1
20260507070924 12 148 0.0 0.0 0.18 0.03 0.03 97 1000.1
20260507070422 13 152 0.0 0.0 0.18 0.03 0.03 98 1000.1
20260507065918 13 149 0.0 0.0 0.00 0.00 0.00 98 1000.1
20260507065415 13 147 0.0 0.0 0.00 0.00 0.00 98 1000.3
20260507064907 13 147 0.0 0.0 0.00 0.00 0.00 97 1000.2
20260507064405 13 142 0.0 1.6 0.00 0.00 0.00 97 1000.2
20260507063902 13 143 0.0 0.0 0.00 0.00 0.00 97 1000.2
20260507063359 13 140 0.0 0.0 0.00 0.00 0.00 97 1000.3
20260507062856 13 151 0.0 0.0 0.00 0.00 0.00 97 1000.3
20260507062352 13 149 0.0 0.0 0.00 0.00 0.00 97 1000.2
20260507061850 13 141 0.0 0.0 0.00 0.00 0.00 97 1000.3
20260507061348 13 149 0.0 0.0 0.00 0.00 0.00 97 1000.4
20260507060846 13 149 0.0 0.0 0.00 0.00 0.00 97 1000.1
20260507060343 13 149 0.0 0.0 0.00 0.00 0.00 97 1000.0
20260507055840 13 139 0.0 0.0 0.00 0.00 0.00 96 1000.1
20260507055335 13 151 0.0 0.0 0.00 0.00 0.00 96 1000.2
20260507054832 13 141 0.0 0.0 0.00 0.00 0.00 96 1000.1
20260507054328 13 146 0.0 0.0 0.00 0.00 0.00 96 1000.4
20260507053825 13 145 0.0 0.0 0.00 0.00 0.00 96 1000.5
20260507053323 13 149 0.0 0.0 0.00 0.00 0.00 96 1000.3
20260507052822 13 158 0.0 0.0 0.00 0.00 0.00 95 1000.2
20260507052318 13 148 0.0 0.0 0.00 0.00 0.00 95 1000.5
20260507051816 13 144 0.0 0.0 0.00 0.00 0.00 94 1000.1
20260507051313 13 135 0.0 0.0 0.00 0.00 0.00 93 1000.2
20260507050809 14 134 0.0 0.0 0.00 0.00 0.00 92 1000.2
20260507050306 14 122 0.0 0.0 0.00 0.00 0.00 91 1000.4
20260507045803 15 141 0.0 0.0 0.00 0.00 0.00 89 1000.9
20260507045259 15 139 0.0 0.0 0.00 0.00 0.00 87 1000.6
20260507044757 15 167 1.6 1.6 0.00 0.00 0.00 84 1000.5
20260507044253 15 145 0.0 0.0 0.00 0.00 0.00 83 1000.1
20260507043749 15 146 0.0 0.0 0.00 0.00 0.00 82 1000.2
20260507043246 16 155 0.0 1.6 0.00 0.00 0.00 81 1000.3
20260507042742 16 143 0.0 0.0 0.00 0.00 0.00 80 1000.3
20260507042237 16 154 1.6 1.6 0.00 0.00 0.00 80 1000.4
20260507041735 16 114 0.0 1.6 0.00 0.00 0.00 81 1000.6
20260507041232 16 117 0.0 1.6 0.00 0.00 0.00 82 1000.2
20260507040729 16 134 0.0 0.0 0.00 0.00 0.00 82 1000.3
20260507040225 16 150 0.0 0.0 0.00 0.00 0.00 81 1000.3
20260507035721 16 148 0.0 0.0 0.00 0.69 0.69 81 999.9
20260507035216 16 143 0.0 0.0 0.00 0.69 0.69 80 999.8
20260507034714 16 151 0.0 1.6 0.00 0.69 0.69 80 999.7
20260507034211 17 157 0.0 0.0 0.00 0.69 0.69 80 999.8
20260507033709 17 137 0.0 0.0 0.00 0.69 0.69 79 1000.0
20260507033206 17 87 1.6 3.2 0.00 0.69 0.69 79 999.7
20260507032704 17 156 1.6 1.6 0.00 0.69 0.69 80 1000.1
20260507032159 17 166 0.0 0.0 0.00 0.69 0.69 81 999.8
20260507031656 17 149 0.0 0.0 0.00 0.69 0.69 82 999.7
20260507031153 17 135 0.0 0.0 0.00 0.69 0.69 81 999.8
20260507030650 17 157 0.0 1.6 0.00 0.69 0.69 81 999.4
20260507030148 17 149 0.0 0.0 0.00 0.69 0.69 81 999.3
20260507025644 17 113 0.0 1.6 0.00 0.69 0.69 80 999.4
20260507025142 17 140 0.0 0.0 0.00 0.69 0.69 80 999.6
20260507024640 17 86 1.6 1.6 0.00 0.69 0.69 79 999.7
20260507024136 17 131 0.0 0.0 0.00 0.69 0.69 79 999.7
20260507023632 17 144 0.0 0.0 0.00 0.69 0.69 79 999.5
20260507023130 17 126 0.0 0.0 0.00 0.69 0.69 78 999.1
20260507022626 17 104 0.0 1.6 0.00 0.69 0.69 79 999.3
20260507022121 18 93 0.0 1.6 0.00 0.69 0.69 80 999.5
20260507021618 18 137 0.0 0.0 0.00 0.69 0.69 81 999.3
20260507021114 18 156 0.0 1.6 0.00 0.69 0.69 82 999.0
20260507020613 18 149 0.0 0.0 0.00 0.69 0.69 82 999.0
20260507020109 18 92 1.6 3.2 0.00 0.69 0.69 81 998.9
20260507015608 18 134 0.0 0.0 0.00 0.69 0.69 81 998.7
20260507015105 18 122 0.0 0.0 0.00 0.69 0.69 81 999.0
20260507014601 18 71 1.6 1.6 0.00 0.69 0.69 81 999.0
20260507014056 18 141 0.0 0.0 0.00 0.69 0.69 82 999.1
20260507013553 18 145 0.0 0.0 0.00 0.69 0.69 82 999.3
20260507013051 19 135 1.6 1.6 0.00 0.69 0.69 82 999.1
20260507012548 19 136 0.0 0.0 0.00 0.69 0.69 83 999.2
20260507012043 19 124 1.6 3.2 0.00 0.69 0.69 84 998.9
20260507011541 19 129 0.0 0.0 0.00 0.69 0.69 89 999.2
20260507011037 18 140 0.0 0.0 0.00 0.69 0.69 90 998.8
20260507010532 18 142 0.0 0.0 0.00 0.69 0.69 90 999.0
20260507010029 18 144 0.0 0.0 0.00 0.69 0.69 90 999.0
20260507005527 18 144 0.0 0.0 0.00 0.69 0.69 89 999.0
20260507005023 19 147 0.0 0.0 0.00 0.69 0.69 89 998.8
20260507004520 19 141 0.0 0.0 0.00 0.69 0.69 89 998.7
20260507004018 19 141 0.0 0.0 0.00 0.69 0.69 89 998.8
20260507003513 19 141 0.0 0.0 0.00 0.69 0.69 88 998.6
20260507003008 19 145 0.0 0.0 0.00 0.69 0.69 89 998.8
20260507002505 19 146 0.0 0.0 0.00 0.69 0.69 89 998.7
20260507002001 19 147 0.0 0.0 0.00 0.69 0.69 89 998.5
20260507001458 19 145 0.0 0.0 0.00 0.69 0.69 88 998.4
20260507000955 19 143 0.0 0.0 0.00 0.69 0.69 88 998.3
20260507000451 19 146 0.0 0.0 0.00 0.69 0.69 88 998.4
20260506235946 19 150 0.0 0.0 0.00 0.69 0.69 88 998.5
20260506235444 19 132 0.0 0.0 0.00 0.69 0.69 88 998.4
20260506234939 20 132 0.0 0.0 0.00 0.69 0.69 87 998.5
20260506234437 20 146 0.0 0.0 0.00 0.69 0.69 86 998.4
20260506233934 20 146 0.0 0.0 0.00 0.69 0.69 87 998.3
20260506233431 20 145 0.0 0.0 0.00 0.69 0.69 85 998.1
20260506232927 20 145 0.0 0.0 0.00 0.69 0.69 85 998.2
20260506232423 20 147 0.0 0.0 0.00 0.69 0.69 85 998.2
20260506231919 20 147 0.0 0.0 0.00 0.69 0.69 85 998.2
20260506231417 20 147 0.0 0.0 0.00 0.69 0.69 84 998.1
20260506230914 20 142 0.0 0.0 0.00 0.69 0.69 84 997.9
20260506230411 20 140 0.0 0.0 0.00 0.69 0.69 84 997.7
20260506225907 20 154 0.0 0.0 0.00 0.69 0.69 83 997.8
20260506225405 20 150 0.0 0.0 0.00 0.69 0.69 82 997.7
20260506224901 20 147 0.0 0.0 0.00 0.69 0.69 83 997.8
20260506224359 20 141 0.0 0.0 0.00 0.69 0.69 83 997.8
20260506223855 20 139 0.0 0.0 0.00 0.69 0.69 83 997.9
20260506223350 20 144 0.0 0.0 0.00 0.69 0.69 82 997.7
20260506222848 20 146 0.0 0.0 0.00 0.69 0.69 82 997.8
20260506222343 20 147 0.0 0.0 0.00 0.69 0.69 82 997.7
20260506221841 21 128 1.6 3.2 0.00 0.69 0.69 82 997.5
20260506221338 21 146 0.0 0.0 0.00 0.69 0.69 83 997.7
20260506220836 21 151 0.0 0.0 0.00 0.69 0.69 82 997.7
20260506220331 20 149 0.0 0.0 0.00 0.69 0.69 82 997.5
20260506215829 20 148 0.0 0.0 0.00 0.69 0.69 82 997.7
20260506215324 21 139 0.0 1.6 0.00 0.69 0.69 82 997.6
20260506214820 21 167 0.0 0.0 0.00 0.69 0.69 82 997.6
20260506214317 21 150 0.0 0.0 0.00 0.69 0.69 81 997.6
20260506213815 20 159 1.6 3.2 0.00 0.69 0.69 81 997.7
20260506213312 20 147 0.0 0.0 0.00 0.69 0.69 81 997.6
20260506212809 21 155 1.6 1.6 0.00 0.69 0.69 81 997.4
20260506212306 21 142 0.0 1.6 0.00 0.69 0.69 81 997.5
20260506211800 21 165 0.0 1.6 0.00 0.69 0.69 80 997.5
20260506211257 21 163 0.0 1.6 0.00 0.69 0.69 80 997.3
20260506210754 21 169 0.0 1.6 0.00 0.69 0.69 80 997.4
20260506210250 21 149 0.0 0.0 0.00 0.69 0.69 80 997.1
20260506205748 21 154 1.6 1.6 0.00 0.69 0.69 79 997.0
20260506205243 21 154 0.0 0.0 0.00 0.69 0.69 80 997.3
20260506204740 21 146 0.0 0.0 0.00 0.69 0.69 80 997.2
20260506204238 21 169 0.0 1.6 0.00 0.69 0.69 80 997.3
20260506203736 21 148 0.0 0.0 0.00 0.69 0.69 81 997.1
20260506203232 21 187 0.0 1.6 0.00 0.69 0.69 80 996.9
20260506202730 21 118 0.0 0.0 0.00 0.69 0.69 80 997.2
20260506202226 21 139 0.0 0.0 0.00 0.69 0.69 79 997.6
20260506201723 21 152 0.0 0.0 0.00 0.69 0.69 81 997.2
20260506201221 21 125 0.0 1.6 0.00 0.69 0.69 80 997.2
20260506200718 21 171 0.0 1.6 0.00 0.69 0.69 80 997.2
20260506200214 21 126 3.2 4.8 0.00 0.69 0.69 80 997.1
20260506195710 20 151 0.0 0.0 0.00 0.69 0.69 80 997.4
20260506195207 20 152 1.6 3.2 0.00 0.69 0.69 82 997.3
20260506194704 20 172 0.0 1.6 0.00 0.69 0.69 81 997.4
20260506194200 21 137 1.6 3.2 0.00 0.69 0.69 80 997.4
20260506193658 21 140 0.0 0.0 0.00 0.69 0.69 81 997.4
20260506193155 21 148 0.0 1.6 0.00 0.69 0.69 81 997.5
20260506192651 21 157 1.6 1.6 0.00 0.69 0.69 80 997.4
20260506192148 20 154 0.0 0.0 0.13 0.69 0.69 81 997.4
20260506191645 20 140 0.0 0.0 0.13 0.69 0.69 82 997.5
20260506191141 20 141 3.2 3.2 0.13 0.69 0.69 81 997.7
20260506190638 20 133 1.6 3.2 0.00 0.66 0.66 80 997.6
20260506190135 20 145 0.0 1.6 0.00 0.66 0.66 82 997.7
20260506185632 20 137 0.0 1.6 0.00 0.66 0.66 83 997.8
20260506185128 20 148 0.0 0.0 0.00 0.66 0.66 85 997.9
20260506184626 19 183 1.6 1.6 0.00 0.66 0.66 85 997.9
20260506184123 19 174 1.6 3.2 0.00 0.66 0.66 84 997.8
20260506183619 19 148 0.0 0.0 0.00 0.66 0.66 86 997.8
20260506183115 19 140 3.2 3.2 0.00 0.66 0.66 84 998.0
20260506182613 19 146 1.6 1.6 0.00 0.66 0.66 85 998.3
20260506182110 19 163 0.0 1.6 0.00 0.66 0.66 85 998.1
20260506181608 19 229 1.6 4.8 0.00 0.66 0.66 85 997.7
20260506181105 19 150 0.0 0.0 0.00 0.66 0.66 87 998.0
20260506180601 19 149 0.0 1.6 0.00 0.66 0.66 86 998.1
20260506180058 18 165 0.0 0.0 0.00 0.66 0.66 87 998.2
20260506175554 18 195 3.2 3.2 0.00 0.66 0.66 87 998.1
20260506175050 18 142 0.0 0.0 0.18 0.66 0.66 89 998.3
20260506174549 18 168 0.0 1.6 0.18 0.66 0.66 89 998.2
20260506174045 18 144 3.2 6.4 0.00 0.64 0.64 89 998.5
20260506173543 18 146 0.0 0.0 0.00 0.64 0.64 92 998.3
20260506173039 17 149 0.0 0.0 0.00 0.64 0.64 92 998.3
20260506172537 17 141 3.2 4.8 0.00 0.64 0.64 93 998.3
20260506172033 17 184 1.6 1.6 0.00 0.64 0.64 92 998.4
20260506171531 17 145 1.6 3.2 0.00 0.64 0.64 94 998.4
20260506171028 17 143 0.0 0.0 0.00 0.64 0.64 94 998.5
20260506170526 17 143 3.2 3.2 0.13 0.64 0.64 93 998.5
20260506170023 17 147 1.6 3.2 0.13 0.64 0.64 94 998.6
20260506165521 17 152 1.6 1.6 0.00 0.61 0.61 95 998.8
20260506165017 17 172 1.6 1.6 0.00 0.61 0.61 96 998.6
20260506164514 17 148 0.0 0.0 0.00 0.61 0.61 97 998.5
20260506164012 17 176 1.6 3.2 0.00 0.61 0.61 97 998.6
20260506163507 16 166 0.0 1.6 0.00 0.61 0.61 98 998.6
20260506163002 16 144 0.0 0.0 0.18 0.61 0.61 98 998.7
20260506162500 16 164 0.0 1.6 0.18 0.61 0.61 98 998.7
20260506161951 16 170 0.0 1.6 0.00 0.58 0.58 98 998.6
20260506161449 16 154 0.0 0.0 0.00 0.58 0.58 98 998.6
20260506160941 16 169 1.6 1.6 0.00 0.58 0.58 99 998.9
20260506160438 16 156 0.0 1.6 0.18 0.58 0.58 98 998.7
20260506155935 16 158 0.0 0.0 0.18 0.58 0.58 99 998.7
20260506155433 16 145 0.0 1.6 0.00 0.56 0.56 99 998.8
20260506153559 16 135 0.0 0.0 0.13 0.56 0.56 99 999.0
20260506153057 16 152 0.0 1.6 0.00 0.53 0.53 99 999.1
20260506152554 16 177 3.2 3.2 0.18 0.53 0.53 99 998.9
20260506152052 15 175 1.6 1.6 0.18 0.53 0.53 99 998.8
20260506151549 15 169 0.0 0.0 0.00 0.51 0.51 99 999.1
20260506151046 15 143 1.6 1.6 0.13 0.51 0.51 98 999.2
20260506150543 15 195 1.6 1.6 0.13 0.51 0.51 98 999.1
20260506150040 16 158 1.6 1.6 0.18 0.48 0.48 98 999.4
20260506145536 15 165 0.0 0.0 0.18 0.48 0.48 99 999.4
20260506145034 16 172 0.0 1.6 0.13 0.46 0.46 98 999.6
20260506144530 15 114 0.0 1.6 0.13 0.46 0.46 99 999.7
20260506144028 15 159 0.0 0.0 0.18 0.43 0.43 99 999.9
20260506143526 15 165 0.0 0.0 0.30 0.43 0.43 98 999.7
20260506143024 15 150 0.0 0.0 0.30 0.41 0.41 98 999.6
20260506142521 15 150 0.0 0.0 0.18 0.38 0.38 98 999.5
20260506142019 15 172 0.0 1.6 0.13 0.36 0.36 98 999.6
20260506141517 15 141 0.0 1.6 0.30 0.36 0.36 98 999.7
20260506141015 15 161 0.0 0.0 0.36 0.33 0.33 98 999.6